[[{"header":{"parameterUnit":"m.s-1","parameterCategory":1,"la1":30.2991,"la2":30.254,"lo1":-89.0895,"lo2":-89.0444,"dy":0.0017,"dx":0.0017,"nx":28,"ny":28,"refTime":"2025-01-10T09:00:00:Z","depth":0,"parameterNumber":2,"parameterNumberName":"U-component_of_WINDS"},"data":[0,0,0,0,0,0,0,0,0,0,0,0,0,0,0,0,0,0,0,0,0,0,0,0,0,0,0,0,0,0,0,0,0,0,0,0,0,0,0,0,0,0,0,0,0,0,0,0,0,0,0,0,0,0,0,0,0,0,3.4198,3.4199,0,3.4273,3.4274,3.4275,3.4246,3.4244,3.4242,3.4241,3.4316,3.4319,3.4323,0,0,0,0,0,0,0,0,0,0,0,0,0,3.403,3.4033,3.4198,3.4199,3.42,3.4273,3.4274,3.4275,3.4246,3.4244,3.4242,3.424,3.4315,3.4319,3.4323,0,0,0,0,0,0,0,0,0,0,0,0,0,3.4104,3.4035,3.4198,3.4194,3.4195,3.4273,3.4274,3.4275,3.4247,3.4244,3.4241,3.4239,3.4313,3.4319,3.4324,3.4409,0,0,3.434,3.4343,0,0,0,0,0,0,0,0,3.41,3.411,3.4194,3.4195,3.4195,3.4247,3.4242,3.432,3.4247,3.4227,3.4241,3.4238,3.4295,3.4302,3.4322,3.4413,3.4416,3.4341,3.4344,3.4347,3.4348,0,0,0,0,0,0,0,3.4095,3.4107,3.4228,3.4195,3.4196,3.4189,3.4197,3.4257,3.4275,3.4228,3.4227,3.4236,3.4295,3.4316,3.4323,3.4417,3.4341,3.4346,3.4349,3.4351,3.4583,3.4586,0,0,0,0,0,0,3.4089,3.4103,3.4225,3.423,3.414,3.4194,3.4203,3.4233,3.4274,3.4278,3.4238,3.4234,3.4308,3.4317,3.4326,3.4429,3.4346,3.4352,3.4355,3.458,3.4583,3.4587,0,0,0,0,0,0,3.4086,3.4101,3.4222,3.4166,3.4181,3.42,3.4234,3.4236,3.4257,3.4281,3.4284,3.4257,3.4307,3.4318,3.4389,3.4431,3.4354,3.4359,3.4576,3.4581,3.4585,3.4635,0,0,0,0,0,0,3.4081,3.41,3.4132,3.4167,3.4184,3.4285,3.4237,3.4239,3.4267,3.4263,3.4299,3.4303,3.4306,3.4381,3.4394,3.4437,3.4363,3.4573,3.4578,3.4584,3.463,3.4641,3.465,0,0,0,0,0,3.4075,3.4143,3.4134,3.4149,3.4225,3.4287,3.4297,3.4299,3.4271,3.4303,3.4319,3.4302,3.4424,3.4388,3.4403,3.4448,3.457,3.4577,3.4583,3.4625,3.4638,3.465,0,0,0,0,0,0,3.4111,3.4147,3.4138,3.4218,3.425,3.4282,3.4323,3.4313,3.4353,3.4347,3.4348,3.4356,3.4429,3.4446,3.4405,3.4533,3.4493,3.4503,3.452,3.4533,3.4542,3.4537,3.4368,0,0,0,0,0,3.4129,3.4177,3.4205,3.4273,3.429,3.4304,3.4331,3.433,3.4363,3.4376,3.4396,3.4428,3.4474,3.4504,3.4548,3.4632,3.464,3.467,3.468,3.4689,3.4697,3.4744,3.4758,3.4608,3.4608,3.4608,0,0,3.4165,3.4191,3.422,3.4281,3.4306,3.4355,3.4315,3.4369,3.4406,3.4384,3.4452,3.4469,3.4505,3.4583,3.4618,3.4599,3.474,3.4697,3.4703,3.4707,3.4752,3.4766,3.4779,3.4613,3.4612,3.4611,0,0,3.4257,3.428,3.434,3.4366,3.4404,3.4413,3.4428,3.4462,3.4472,3.4541,3.4526,3.457,3.4649,3.4675,3.4699,3.4802,3.4788,3.4816,3.4869,3.4914,3.4926,3.4937,3.4974,3.4987,3.4825,3.4825,3.4825,0,3.4297,3.4371,3.4372,3.4428,3.4455,3.4439,3.45,3.4525,3.4575,3.4594,3.4571,3.4671,3.4694,3.4779,3.4804,3.4824,3.484,3.4812,3.4924,3.4935,3.4945,3.498,3.4994,3.4828,3.4828,3.4827,3.4827,0,3.4418,3.447,3.4514,3.4564,3.4596,3.4654,3.4665,3.4697,3.4694,3.4706,3.4777,3.4804,3.4853,3.4873,3.487,3.4958,3.4945,3.4924,3.4883,3.4962,3.4996,3.5009,3.4833,3.4831,3.4831,3.483,0,0,3.4534,3.4585,3.4601,3.4624,3.4665,3.4705,3.4762,3.4811,3.4839,3.4875,3.4923,3.4991,3.4972,3.4999,3.4999,3.5039,3.512,3.5013,3.5014,3.5032,3.5219,3.5235,3.5251,3.5111,3.5114,3.5116,3.5216,0,3.4628,3.473,3.4734,3.4826,3.4874,3.486,3.491,3.4941,3.4954,3.4997,3.5011,3.5059,3.503,3.5046,3.5086,3.5102,3.5157,3.5095,3.5156,3.5158,3.5147,3.5268,3.5285,3.5378,3.5229,3.5232,3.5233,0,3.4752,3.4793,3.489,3.4925,3.4946,3.4991,3.5036,3.5077,3.5112,3.5119,3.515,3.5145,3.5204,3.5162,3.5244,3.5201,3.5226,3.5238,3.5242,3.5248,3.52,3.5277,3.5408,3.5422,3.5254,3.5252,3.5251,0,3.4827,3.4905,3.4974,3.4994,3.5037,3.5069,3.5089,3.5121,3.5151,3.5191,3.521,3.5256,3.5281,3.5317,3.5324,3.5293,3.5407,3.5365,3.5414,3.5414,3.5438,3.5436,3.5575,3.5455,3.5454,3.5454,3.5454,0,3.4932,3.4992,3.5008,3.5051,3.5118,3.5122,3.5189,3.5206,3.5235,3.5281,3.5271,3.5314,3.5321,3.5366,3.5372,3.5439,3.545,3.5457,3.5458,3.5458,3.5457,3.5474,3.5468,3.5458,3.5457,3.5456,3.5456,0,3.5027,3.504,3.5114,3.5149,3.5159,3.5208,3.5238,3.5278,3.5291,3.5348,3.5362,3.5382,3.5434,3.5445,3.5506,3.551,3.559,3.5585,3.5579,3.5578,3.5626,3.5622,3.5781,3.5802,3.5668,3.5669,3.567,0,3.5093,3.5139,3.518,3.521,3.5231,3.528,3.531,3.5316,3.5348,3.5393,3.5428,3.5479,3.5521,3.5605,3.5624,3.5671,3.5667,3.572,3.5674,3.5673,3.5668,3.5665,3.567,3.5728,3.5729,3.5731,3.5732,0,3.521,3.5214,3.5258,3.5306,3.5342,3.538,3.5415,3.544,3.5452,3.5488,3.5542,3.5574,3.5638,3.5689,3.5736,3.5756,3.5746,3.5746,3.576,3.576,3.5755,3.5759,3.5602,3.5742,3.5741,3.574,3.574,3.5739,3.5292,3.5333,3.5368,3.5418,3.5446,3.548,3.552,3.5538,3.5583,3.5635,3.5636,3.5695,3.573,3.5793,3.5816,3.5862,3.5846,3.5866,3.5871,3.5876,3.588,3.5748,3.5871,3.5871,3.587,3.587,3.587,0,3.5408,3.5431,3.5477,3.5527,3.5567,3.5555,3.5594,3.5628,3.568,3.5713,3.5754,3.5817,3.5866,3.5891,3.594,3.5972,3.5969,3.5985,3.5983,3.5988,3.5892,3.5875,3.5987,3.5987,3.5987,3.5987,3.5987,3.5987,3.5473,3.5542,3.5551,3.5633,3.5655,3.5713,3.5737,3.5768,3.5795,3.5865,3.5906,3.5922,3.5952,3.6004,3.6049,3.6055,3.6074,3.6092,3.6096,3.6006,3.5994,3.5983,3.5967,3.6096,3.6096,3.6188,3.6189,3.6189]},{"header":{"parameterUnit":"m.s-1","parameterCategory":1,"la1":30.2991,"la2":30.254,"lo1":-89.0895,"lo2":-89.0444,"dy":0.0017,"dx":0.0017,"nx":28,"ny":28,"refTime":"2025-01-10T09:00:00:Z","depth":0,"parameterNumber":3,"parameterNumberName":"V-component_of_WINDS"},"data":[0,0,0,0,0,0,0,0,0,0,0,0,0,0,0,0,0,0,0,0,0,0,0,0,0,0,0,0,0,0,0,0,0,0,0,0,0,0,0,0,0,0,0,0,0,0,0,0,0,0,0,0,0,0,0,0,0,0,-5.323,-5.3231,0,-5.3363,-5.3364,-5.3366,-5.3314,-5.3311,-5.3308,-5.3305,-5.344,-5.3446,-5.3452,0,0,0,0,0,0,0,0,0,0,0,0,0,-5.2932,-5.2937,-5.323,-5.3232,-5.3233,-5.3362,-5.3364,-5.3366,-5.3315,-5.3311,-5.3308,-5.3304,-5.3437,-5.3445,-5.3453,0,0,0,0,0,0,0,0,0,0,0,0,0,-5.3062,-5.2939,-5.323,-5.3223,-5.3224,-5.3362,-5.3364,-5.3366,-5.3316,-5.3311,-5.3307,-5.3302,-5.3435,-5.3444,-5.3454,-5.3605,0,0,-5.3483,-5.3487,0,0,0,0,0,0,0,0,-5.3055,-5.3073,-5.3223,-5.3224,-5.3225,-5.3317,-5.3308,-5.3446,-5.3317,-5.3281,-5.3305,-5.33,-5.3402,-5.3414,-5.3449,-5.3611,-5.3617,-5.3484,-5.349,-5.3494,-5.3497,0,0,0,0,0,0,0,-5.3046,-5.3067,-5.3282,-5.3225,-5.3226,-5.3214,-5.3227,-5.3334,-5.3366,-5.3284,-5.328,-5.3297,-5.3402,-5.344,-5.3452,-5.3619,-5.3484,-5.3492,-5.3498,-5.3502,-5.3913,-5.3917,0,0,0,0,0,0,-5.3037,-5.306,-5.3278,-5.3286,-5.3127,-5.3223,-5.3238,-5.3292,-5.3364,-5.3371,-5.3301,-5.3294,-5.3426,-5.3441,-5.3457,-5.3639,-5.3494,-5.3503,-5.3508,-5.3908,-5.3914,-5.3919,0,0,0,0,0,0,-5.3031,-5.3057,-5.3273,-5.3173,-5.3199,-5.3233,-5.3294,-5.3297,-5.3335,-5.3377,-5.3382,-5.3334,-5.3423,-5.3443,-5.3569,-5.3643,-5.3507,-5.3516,-5.3901,-5.3909,-5.3916,-5.4005,0,0,0,0,0,0,-5.3022,-5.3055,-5.3113,-5.3174,-5.3205,-5.3383,-5.3299,-5.3303,-5.3352,-5.3345,-5.341,-5.3416,-5.3421,-5.3555,-5.3578,-5.3654,-5.3524,-5.3895,-5.3905,-5.3914,-5.3995,-5.4015,-5.4031,0,0,0,0,0,-5.3012,-5.3132,-5.3116,-5.3143,-5.3278,-5.3388,-5.3405,-5.3409,-5.3358,-5.3417,-5.3444,-5.3414,-5.3631,-5.3568,-5.3594,-5.3674,-5.389,-5.3902,-5.3913,-5.3987,-5.4011,-5.4031,0,0,0,0,0,0,-5.3077,-5.314,-5.3123,-5.3266,-5.3322,-5.3379,-5.3453,-5.3433,-5.3504,-5.3494,-5.3495,-5.351,-5.364,-5.3669,-5.3598,-5.3824,-5.3753,-5.377,-5.38,-5.3823,-5.384,-5.3831,-5.3532,0,0,0,0,0,-5.3109,-5.3193,-5.3243,-5.3365,-5.3394,-5.3419,-5.3467,-5.3465,-5.3522,-5.3546,-5.3582,-5.3639,-5.372,-5.3773,-5.385,-5.4,-5.4013,-5.4067,-5.4085,-5.4099,-5.4114,-5.4196,-5.4221,-5.3957,-5.3957,-5.3957,0,0,-5.3174,-5.3218,-5.3272,-5.3379,-5.3422,-5.3509,-5.3439,-5.3534,-5.3599,-5.356,-5.3681,-5.371,-5.3773,-5.3912,-5.3975,-5.394,-5.419,-5.4114,-5.4125,-5.4132,-5.4211,-5.4236,-5.4258,-5.3965,-5.3964,-5.3962,0,0,-5.3338,-5.338,-5.3486,-5.3531,-5.3598,-5.3614,-5.3639,-5.37,-5.3717,-5.3839,-5.3812,-5.3889,-5.4029,-5.4075,-5.4117,-5.43,-5.4275,-5.4325,-5.4417,-5.4497,-5.4518,-5.4537,-5.4602,-5.4626,-5.4339,-5.434,-5.434,0,-5.341,-5.3541,-5.3543,-5.3641,-5.3689,-5.3659,-5.3767,-5.3811,-5.3899,-5.3933,-5.3893,-5.4068,-5.4108,-5.4258,-5.4303,-5.4338,-5.4367,-5.4317,-5.4515,-5.4534,-5.4551,-5.4613,-5.4638,-5.4345,-5.4345,-5.4344,-5.4344,0,-5.3627,-5.3718,-5.3796,-5.3883,-5.394,-5.4043,-5.406,-5.4118,-5.4111,-5.4132,-5.4256,-5.4304,-5.4391,-5.4426,-5.442,-5.4575,-5.4552,-5.4514,-5.4442,-5.4582,-5.464,-5.4664,-5.4353,-5.4351,-5.435,-5.4348,0,0,-5.3835,-5.3923,-5.3951,-5.3991,-5.4063,-5.4133,-5.4234,-5.4319,-5.4369,-5.4431,-5.4516,-5.4635,-5.4601,-5.4648,-5.4648,-5.4718,-5.486,-5.4671,-5.4673,-5.4705,-5.5035,-5.5063,-5.5091,-5.4844,-5.4849,-5.4853,-5.5029,0,-5.4005,-5.4183,-5.4188,-5.4351,-5.4436,-5.4409,-5.4497,-5.4551,-5.4573,-5.4647,-5.4671,-5.4756,-5.4704,-5.4733,-5.4801,-5.4829,-5.4927,-5.4816,-5.4923,-5.4927,-5.4908,-5.5121,-5.5151,-5.5316,-5.5052,-5.5056,-5.5059,0,-5.4226,-5.4296,-5.4468,-5.4528,-5.4564,-5.4643,-5.4722,-5.4794,-5.4854,-5.4865,-5.4919,-5.4908,-5.5012,-5.4937,-5.508,-5.5004,-5.5049,-5.5069,-5.5075,-5.5086,-5.5002,-5.5137,-5.5368,-5.5393,-5.5095,-5.5092,-5.509,0,-5.4361,-5.4498,-5.4619,-5.4653,-5.4726,-5.4783,-5.4816,-5.4872,-5.4923,-5.4992,-5.5025,-5.5105,-5.5149,-5.5211,-5.5222,-5.5167,-5.5366,-5.5292,-5.5378,-5.5377,-5.542,-5.5417,-5.5662,-5.5449,-5.5449,-5.5448,-5.5448,0,-5.455,-5.4656,-5.468,-5.4755,-5.4873,-5.4878,-5.4995,-5.5024,-5.5074,-5.5153,-5.5135,-5.5209,-5.5219,-5.5297,-5.5306,-5.5423,-5.5443,-5.5454,-5.5456,-5.5456,-5.5455,-5.5485,-5.5474,-5.5455,-5.5453,-5.5452,-5.5451,0,-5.472,-5.4741,-5.4871,-5.493,-5.4947,-5.5032,-5.5083,-5.5154,-5.5174,-5.5274,-5.5298,-5.533,-5.542,-5.5438,-5.5544,-5.555,-5.569,-5.5679,-5.567,-5.5668,-5.5753,-5.5745,-5.6026,-5.6063,-5.5826,-5.5828,-5.583,0,-5.4839,-5.492,-5.4989,-5.5041,-5.5077,-5.5161,-5.5214,-5.5222,-5.5278,-5.5353,-5.5415,-5.5504,-5.5575,-5.572,-5.5752,-5.5834,-5.5825,-5.5918,-5.5837,-5.5836,-5.5827,-5.5822,-5.583,-5.5933,-5.5936,-5.5938,-5.594,0,-5.5049,-5.5055,-5.5132,-5.5213,-5.5276,-5.534,-5.5401,-5.5445,-5.5461,-5.5525,-5.5617,-5.5672,-5.5782,-5.587,-5.5951,-5.5985,-5.5966,-5.5965,-5.5989,-5.5991,-5.5982,-5.5988,-5.5712,-5.5959,-5.5957,-5.5955,-5.5954,-5.5954,-5.5197,-5.5268,-5.5328,-5.5414,-5.5461,-5.5519,-5.5589,-5.5618,-5.5696,-5.5786,-5.5786,-5.5887,-5.5946,-5.6054,-5.6093,-5.6172,-5.6142,-5.6177,-5.6186,-5.6195,-5.6203,-5.597,-5.6186,-5.6186,-5.6185,-5.6185,-5.6185,0,-5.5406,-5.5443,-5.5523,-5.5609,-5.5677,-5.5654,-5.572,-5.5778,-5.5868,-5.5924,-5.5995,-5.6102,-5.6187,-5.6227,-5.6311,-5.6367,-5.6361,-5.6389,-5.6385,-5.6393,-5.6224,-5.6195,-5.6393,-5.6393,-5.6393,-5.6393,-5.6393,-5.6393,-5.5522,-5.5642,-5.5656,-5.5798,-5.5835,-5.5934,-5.5974,-5.6027,-5.6073,-5.6193,-5.6264,-5.629,-5.634,-5.6428,-5.6506,-5.6515,-5.6547,-5.658,-5.6585,-5.6426,-5.6405,-5.6385,-5.6357,-5.6587,-5.6587,-5.6748,-5.6749,-5.675]}]]